Location: *
(45.1961°N, 1.9694°E)
Time: 21:16:05
(UTC+00:00)

H-2A R/B - Pass Details

Date: 25 August 2019
Orbit: 734 x 836 km, 98.3° (Epoch: 13 October)

Event Time Altitude Azimuth Distance (km) Brightness Sun altitude
Exits shadow 19:47:32 - 163° (SSE) 2,727 4.4 -11.4°
Reaches altitude 10° 19:48:40 10° 163° (SSE) 2,274 4.0 -11.6°
Maximum altitude 19:53:40 86° 75° (ENE) 753 1.9 -12.3°
Drops below altitude 10° 19:58:37 10° 347° (NNW) 2,253 5.1 -13.1°
Sets 20:00:53 0° 348° (NNW) 3,176 5.9 -13.4°
